Zurück zum Katalog

COSMOS 970 DEB

AktivLEO
NORAD 10882·DEBRIS·🇷🇺 Russia

Gestartet Dec 21, 1977 von Baikonur Cosmodrome

Loading…

Nächste Überflüge (nächste 24 Stunden)

TLE

AktuellSource: Space-Track

Epoche: Sep 14, 2026, 04:36 UTC

1 10882U 77121AD  26257.19188845  .00000305  00000-0  36562-3 0  9996
2 10882  65.8240 170.8151 0123766  78.3934 283.0992 13.77547198438659

Verfolge COSMOS 970 DEB in Echtzeit mit AllMySat

Download on the App Store